Find Starlink 30442

NORAD ID: 57868 Int'l Des: 2023-144 Owner: SPXS Country: US Constellation: starlink operational
LEOCIRCULAR

Current View

Loading 3D Globe...

About Starlink 30442

Starlink 30442 (NORAD 57868) is a starlink constellation satellite (v2 mini) launched Sep 16, 2023 by SPXS of US. It operates in LEO, CIRCULAR orbit with a mass of 730.00 kg.

About Starlink 30442

Description loading...

Upcoming Passes

Passes for default location (London). Set your location on the main map for personalized predictions.

Altitude History

Loading altitude history...

Two-Line Element Set

1 57868U 23144E 26170.07941969 .00000468 00000-0 26538-4 0 9995
2 57868 43.0026 72.5674 0000985 269.6805 90.3933 15.27570801153103
Epoch: Jun 19, 2026 • Age: 31 hours

Current Status

Altitude 483.2 km
Velocity 7.63 km/s
Sub-Earth Point -2.21°S, 148.66°W
Launch Date Sep 16, 2023
Age 2.7 years
Type internet

Technical Details

Classification Payload
Mass 730.00 kg
Dry Mass 700.00 kg
Total Mass 730.00 kg
Length 0.30 m
Diameter 4.10 m
Span 29.00 m
Shape Box + pan
Manufacturer SPXS
Bus Type Starlink V2M
Phase Status In Orbit
Owner/State SPXS/US

Most Searched